Regional Weather Roundup
Issued by NWS

Home | Current Version | Previous Version | Graphics & Text | Print | Product List | Glossary On
Versions: 1 2 3 4 5 6 7 8 9 10 11 12 13 14 15 16 17 18 19 20 21 22 23 24 25 26 27 28 29 30 31 32 33 34 35 36 37 38 39 40 41 42 43 44 45 46 47 48 49 50
000
ASUS43 KFSD 302002
RWRSD

WEATHER ROUNDUP FOR SOUTH DAKOTA
NATIONAL WEATHER SERVICE SIOUX FALLS SD
300 PM CDT WED JUL 30 2014

NOTE: "FAIR" INDICATES FEW OR NO CLOUDS BELOW 12,000 FEET WITH NO
SIGNIFICANT WEATHER AND/OR OBSTRUCTIONS TO VISIBILITY.


SDZ001>005-009-010-012>017-302100-
NORTHWEST AND NORTH CENTRAL SOUTH DAKOTA

CITY           SKY/WX    TMP DP  RH WIND       PRES   REMARKS
BUFFALO          N/A     82  48  30 N13       30.12F
FAITH            N/A     83  53  35 NW8       30.13F
MOBRIDGE       MOSUNNY   83  57  41 VRB3      30.10S
$$

SDZ012>016-024>037-041>051-057-063-072>074-302100-
SOUTHWEST AND SOUTH CENTRAL SOUTH DAKOTA

CITY           SKY/WX    TMP DP  RH WIND       PRES   REMARKS
RAPID CTY ARPT MOSUNNY   83  46  27 N9        30.18S
PIERRE         MOSUNNY   86  54  33 VRB6      30.09F
CUSTER         PTSUNNY   74  49  41 E10       30.30S
ELLSWORTH AFB  MOSUNNY   83  43  23 N10       30.17F
PHILIP         PTSUNNY   87  51  28 VRB6      30.09F
PINE RIDGE     PTSUNNY   79  52  38 MISG      30.20S
WINNER         FAIR      85  49  28 E6        30.13F
$$

SDZ004>011-016>023-039-040-302100-
NORTHEAST SOUTH DAKOTA

CITY           SKY/WX    TMP DP  RH WIND       PRES   REMARKS
ABERDEEN       MOSUNNY   80  55  42 NE6       30.11F
WATERTOWN      SUNNY     77  53  43 W8        30.14S
SISSETON         N/A     79  55  43 N6        30.10F
$$

SDZ017-020-022-023-036>040-048>070-302100-
SOUTHEAST SOUTH DAKOTA

CITY           SKY/WX    TMP DP  RH WIND       PRES   REMARKS
SIOUX FALLS    MOSUNNY   79  54  41 S6        30.14S
HURON          SUNNY     81  53  37 VRB5      30.12F
CHAMBERLAIN    MOSUNNY   79  53  40 CALM      30.12F
MITCHELL       MOSUNNY   80  53  39 CALM      30.13F
YANKTON        SUNNY    N/A N/A N/A MISG        N/A
$$

ABBREVIATIONS USED IN REMARKS
   TC - TEMPERATURE IN CELSIUS
  WCI - WIND CHILL INDEX
   HX - HEAT INDEX
  VSB - VISIBILITY




USA.gov is the U.S. government's official web portal to all federal, state and local government web resources and services.